Flag for Brazil

Past Weather in 23°13'23.256"S, 44°42'30.977"W, Brazil — Yesterday and Last 2 Weeks

Now
82 °F

Sunny.


Feels Like: 82 °F
Forecast: 83 / 56 °F
Wind: 5 mph from Northwest

Location: Galeao

Current Time: Jul 12, 2020 at 11:22:35 am

Latest Report: Jul 12, 2020 at 10:00 am


Visibility: 10 mi

Pressure: 29.98 "Hg

Humidity: 42%

Dew Point: 57 °F

Location of 23°13'23.256"S, 44°42'30.977"WLocation

Past Weather in 23°13'23.256"S, 44°42'30.977"W — Graph

°F

23°13'23.256"S, 44°42'30.977"W Temperature Yesterday

Maximum temperature yesterday: 82 °F (at 2:00 pm)
Minimum temperature yesterday: 59 °F (at 5:00 am)
Average temperature yesterday: 70 °F

High & Low Weather Summary for the Past Weeks

 TemperatureHumidityPressure
High90 °F (Jul 8, 2:00 pm)94% (Jun 30, 5:00 am)30.27 "Hg (Jun 30, 5:00 am)
Low59 °F (Jul 11, 5:00 am)27% (Jul 8, 12:00 pm)29.71 "Hg (Jul 1, 1:00 pm)
Average71 °F71%30.02 "Hg
* Reported Jun 27 10:00 am — Jul 12 10:00 am, 23°13'23.256"S, 44°42'30.977"W. Weather by CustomWeather, © 2020

Note: Actual official high and low records may vary slightly from our data, if they occured in-between our weather recording intervals... More about our weather records

23°13'23.256"S, 44°42'30.977"W Weather History for the Previous 24 Hours

Scroll right to see more
 ConditionsComfort  
Time TempWeatherWind HumidityBarometerVisibility
10:00 am
Sun, Jul 12
82 °FSunny.5 mph42%29.98 "Hg10 mi
9:00 am77 °FSunny.3 mph57%29.98 "Hg10 mi
8:00 am73 °FSunny.2 mph69%29.95 "Hg10 mi
7:00 am64 °FSunny.3 mph83%29.95 "Hg10 mi
6:00 am63 °FClear.No wind88%29.95 "Hg10 mi
5:00 am64 °FClear.2 mph83%29.95 "Hg10 mi
4:00 am64 °FClear.2 mph88%29.92 "Hg10 mi
3:00 am66 °FClear.3 mph83%29.95 "Hg10 mi
2:00 am66 °FClear.2 mph83%29.95 "Hg10 mi
1:00 am66 °FClear.2 mph83%29.98 "Hg10 mi
12:00 am66 °FClear.2 mph83%29.98 "Hg10 mi
11:00 pm
Sat, Jul 11
68 °FClear.3 mph83%29.98 "Hg10 mi
10:00 pm68 °FClear.6 mph88%29.98 "Hg10 mi
9:00 pm70 °FClear.3 mph83%30.01 "Hg10 mi
8:00 pm72 °FClear.3 mph69%29.98 "Hg10 mi
7:00 pm77 °FClear.7 mph61%29.98 "Hg10 mi
6:00 pm75 °FClear.6 mph65%29.98 "Hg10 mi
5:00 pm81 °FSunny.5 mph51%29.98 "Hg10 mi
4:00 pm82 °FSunny.7 mph45%29.98 "Hg10 mi
3:00 pm82 °FSunny.6 mph45%29.98 "Hg10 mi
2:00 pm82 °FSunny.9 mph45%29.98 "Hg10 mi
1:00 pm81 °FSunny.7 mph51%30.04 "Hg10 mi
12:00 pm81 °FSunny.5 mph51%30.07 "Hg10 mi
11:00 am75 °FSunny.6 mph61%30.09 "Hg10 mi
Weather by CustomWeather, © 2020

See weather overview